Location: Bern�tre
(50.1974°N, 2.0915°E)
Time: 02:59:09
(UTC+00:00)

Cosmos 1898 Rocket - Pass Details

Date: 18 September 2020
Orbit: 753 x 784 km, 74.0° (Epoch: 24 October)

Event Time Altitude Azimuth Distance (km) Brightness Sun altitude
Rises 18:24:26 0° 189° (S) 3,193 6.7 -5.1°
Reaches altitude 10° 18:26:49 10° 186° (S) 2,272 5.9 -5.4°
Maximum altitude 18:31:51 58° 108° (ESE) 881 3.5 -6.2°
Drops below altitude 10° 18:36:56 10° 31° (NNE) 2,294 5.8 -7.0°
Sets 18:39:21 0° 27° (NNE) 3,226 6.6 -7.4°
